Showing default

KUIPER-00388, 68922

Orbit data source: Space-Track

KUIPER-00388, 68922 is a payload satellite owned by Kuiper Systems (US) in LEO that was launched on Thu, 30 Apr 2026 UTC via an ARIANE 64 launch vehicle from the French Guiana (FRGUI). Payload-class satellites include a variety of spacecraft equipped with specific instruments for various scientific and technological missions. These include communications satellites like Starlink; space stations such as the ISS; scientific satellites like the Hubble; Earth observation satellites from companies like Planet Labs, Umbra, and HawkEye 360; GPS; miniature CubeSats for education and research; and military/defense satellites.

Loading next visibility...
Identifier
68922, 2026-098D
Orbit
LEO
Country
Flag of USUS
Related business
Manufacturer
Kuiper Systems
Mission
Operational spacecraft
Bus & Motor
KUIPER, Unknown motor
Mass
~490 kg wet, ~490 kg dry
Launch date (UTC)
2026-04-30 (2 months ago)
Launch vehicle
ARIANE 64
Launch site
French Guiana (FRGUI)
Object type
Payload
Rocket body
Debris
Shape & HBR
Unknown shape, 3.4 m
Radar Cross Section
Large (>1 m²)

Expand to show TLE details & history
Last TLE update: 22 hours ago

TLE from 22 hours ago
0 KUIPER-00388
1 68922U 26098D   26170.93430849  .00017945  00000-0  66486-3 0  9997
2 68922  51.8772  56.3521 0021719 153.4167 206.7935 15.27493468  7747
Epoch: 2026-06-19T22:25Z
TLE epoch observation values (Epoch: 2026-06-19T22:25:24.253Z)
Latitude
0.00005°
Longitude
171.84492°
Altitude
497.377 km
Speed
7.61 km/s
True Right ascension
03h 45m 24s
True Declination
0° 00' 00"
Sunlit
Object was in daylight at epoch
Visualization orbit readout
Latitude
Unknown
Longitude
Unknown
Altitude
Unknown
Speed
Unknown
Apparent Right ascension
Unknown
Apparent Declination
Unknown
Sunlit
N/A
Visualization observer readout
Local Sidereal Time
07:20:24
Azimuth
Unknown
Elevation
Unknown
Doppler factor
Unknown
Orbital elements
Apogee altitude
498.676 km
Perigee altitude
468.869 km
Semi-major axis
6,861.91 km
Eccentricity
0.00217
Inclination
51.8772°
RAAN
56.3521°
Arg. of periapsis
153.4167°
True anomaly
206.68158°
Mean anomaly
206.7935°
Eccentric anomaly
206.73751°
Mean motion
3.81835 °/min
Orbital period
94.28 mins
BSTAR
0.00066486
Loading maneuver chart data...
Computing Atmospheric mass density...
Loading historical data...
Loading historical data...
Loading historical data...
Loading historical data...
Loading historical data...
Loading historical data...
Loading historical data...

Documentation

Showing up to 5 results
|